Flag for Germany Weather past 2 weeks in Leutkirch im Allgäu, Baden-Württemberg, Germany

Now
59 °F

Overcast.


Feels Like: 59 °F
Forecast: 43 / 67 °F
Wind: 1 mph from Northeast

Location: Kempten

Current Time: Aug 20, 2014 at 3:49:16 PM

Latest Report: Aug 20, 2014 at 3:00 PM


Visibility: 19 mi

Pressure: 29.99 "Hg

Humidity: 70%

Dew point: 50 °F

Location of Leutkirch im AllgäuLocation

Historic Weather in Leutkirch im Allgäu — Graph

°F

Leutkirch im Allgäu temperature yesterday

Maximum temperature yesterday: 65 °F (at 3:00 PM)
Minimum temperature yesterday: 52 °F (at 6:00 AM)
Average temperature yesterday: 59 °F

Past Weeks' High & Low Weather Summary

 TemperatureHumidityPressure
High81 °F (Aug 10, 6:00 PM)100% (Aug 6, 2:00 AM)30.21 "Hg (Aug 6, 2:00 AM)
Low46 °F (Aug 17, 7:00 AM)42% (Aug 6, 4:00 PM)29.66 "Hg (Aug 13, 2:00 PM)
Average60 °F80%29.97 "Hg
* Reported Aug 5 2:00 PM — Aug 20 2:00 PM, Leutkirch im Allgäu, Weather by CustomWeather, © 2014

Note: Actual official high and low records may vary slightly from our data, if they occured in-between our weather recording intervals... More about our weather records

Advertising

Leutkirch im Allgäu weather history for previous 24 hours

 ConditionsComfort  
Time TempWeatherWind HumidityBarometerVisibility
2:00 PM
Aug 20
59 °FOvercast.2 mph71%30.00 "Hg22 mi
1:00 PM58 °FOvercast.2 mph72%30.01 "Hg18 mi
12:00 PM57 °FOvercast.1 mph73%30.01 "Hg25 mi
11:00 AM58 °FOvercast.2 mph72%30.00 "Hg25 mi
10:00 AM57 °FOvercast.2 mph73%30.02 "Hg28 mi
9:00 AM55 °FOvercast.1 mph81%30.02 "Hg22 mi
8:00 AM54 °FOvercast.1 mph86%30.03 "Hg25 mi
7:00 AM54 °FOvercast.1 mph79%30.03 "Hg22 mi
6:00 AM54 °FOvercast.1 mph83%30.02 "Hg22 mi
4:00 AM55 °FOvercast.1 mph91%30.00 "Hg22 mi
3:00 AM55 °FOvercast.No wind88%30.00 "Hg25 mi
2:00 AM56 °FOvercast.1 mph85%30.00 "Hg28 mi
1:00 AM57 °FOvercast.No wind80%30.00 "Hg25 mi
12:00 AM58 °FOvercast.2 mph72%29.99 "Hg28 mi
11:00 PM
Aug 19
59 °FOvercast.3 mph70%29.97 "Hg25 mi
10:00 PM59 °FOvercast.2 mph74%29.96 "Hg19 mi
9:00 PM60 °FOvercast.2 mph73%29.94 "Hg19 mi
8:00 PM61 °FOvercast.3 mph69%29.92 "Hg22 mi
7:00 PM62 °FPartly sunny.2 mph66%29.90 "Hg19 mi
6:00 PM64 °FOvercast.2 mph64%29.89 "Hg19 mi
4:00 PM65 °FOvercast.5 mph57%29.88 "Hg19 mi
3:00 PM65 °FPartly sunny.3 mph61%29.88 "Hg18 mi
Weather by CustomWeather, © 2014

See weather overviewHow to use our weather pages